Flag for Norway Weather past 2 weeks in Tønsberg, Norway

Now
43 °F

Fog.


Feels Like: 36 °F
Forecast: 44 / 62 °F
Wind: 13 mph from Northeast

Location: Oseberg


UV Index: 0 (Low)

Visibility: 0 mi


Pressure: 30.15 "Hg

Humidity: 93%

Dew point: 41 °F

Location of TønsbergLocation

Historic Weather in Tønsberg

°F

Tønsberg temperature yesterday

Maximum temperature yesterday: 50 °F (at 6:50 PM)
Minimum temperature yesterday: 43 °F (at 11:50 PM)
Average temperature yesterday: 46 °F

Past Weeks' High & Low Weather Summary

 TemperatureHumidityPressure
High50 °F (Apr 20, 6:50 PM)100% (Apr 6, 6:20 AM)30.36 "Hg (Apr 6, 6:20 AM)
Low37 °F (Apr 13, 11:50 PM)50% (Apr 18, 10:50 AM)29.24 "Hg (Apr 12, 8:50 PM)
Average44 °F84%29.81 "Hg
* Reported Apr 6 6:20 AM — Apr 21 6:50 AM, Tønsberg, Weather by CustomWeather, © 2014

Note: Actual official high and low records may vary slightly from our data, if they occured in-between our weather recording intervals... More about our weather records

Advertising

Historic Weather Conditions — Data for Previous 24 hours

 ConditionsComfort  
Time TempWeatherWind HumidityBarometerVisibility
6:50 AM
Apr 21
45 °FFog.10 mph93%30.12 "Hg6 mi
6:20 AM43 °FFog.9 mph81%30.12 "Hg3 mi
5:50 AM43 °FFog.2 mph93%30.12 "Hg0 mi
4:50 AM43 °FFog.2 mph93%30.12 "Hg0 mi
3:50 AM43 °FFog.2 mph100%30.15 "Hg0 mi
2:50 AM43 °FFog.3 mph100%30.12 "Hg0 mi
1:50 AM43 °FFog.1 mph100%30.15 "Hg0 mi
12:50 AM43 °FFog.No wind100%30.15 "Hg0 mi
11:50 PM
Apr 20
43 °FFog.1 mph100%30.15 "Hg0 mi
10:50 PM45 °FFog.6 mph93%30.15 "Hg0 mi
9:50 PM45 °FFog.2 mph93%30.12 "Hg0 mi
8:50 PM48 °FFog.2 mph82%30.12 "Hg0 mi
8:20 PM48 °FFog.1 mph82%30.12 "Hg0 mi
7:50 PM48 °FFog.3 mph76%30.12 "HgN/A
7:20 PM48 °FFog.5 mph76%30.12 "Hg3 mi
6:50 PM50 °FSunny.7 mph71%30.12 "Hg10 mi
6:20 PM46 °FSunny.7 mph82%30.12 "Hg10 mi
5:50 PM46 °FSunny.8 mph82%30.12 "Hg10 mi
4:50 PM46 °FSunny.10 mph76%30.15 "Hg10 mi
4:20 PM46 °FSunny.9 mph82%30.15 "Hg10 mi
3:50 PM46 °FSunny.12 mph82%30.15 "Hg10 mi
2:50 PM46 °FSunny.13 mph82%30.15 "Hg10 mi
1:50 PM46 °FSunny.13 mph82%30.15 "Hg10 mi
12:50 PM46 °FSunny.12 mph82%30.18 "Hg10 mi
11:50 AM46 °FSunny.13 mph82%30.18 "Hg10 mi
10:50 AM45 °FSunny.13 mph87%30.18 "Hg10 mi
9:50 AM45 °FPassing clouds.9 mph93%30.18 "HgN/A
8:50 AM46 °FPassing clouds.7 mph87%30.18 "HgN/A
8:20 AM45 °FPassing clouds.8 mph93%30.18 "HgN/A
Weather by CustomWeather, © 2014

See weather overview